Weather in Split

Croatia     43°30′45″N   16°26′32″E
temp.,
°C
wind,
m/s
gust,
m/s
humid.,
%
clouds,
%
prec.,
mm/h
press.,
hPa
HPBL,
m
19 january, tue
tue1901:000ne336139 0.0 102691
04:00+1ne325829 0.0 102688
07:00+1ne235929 0.0 102687
10:00+4ne224920 0.0 1027163
13:00+6s115850 0.0 1025408
16:00+5sw117137 0.0 1025328
19:00+4ene227663 0.0 1025169
22:00+4ese348088 0.1 1026233
20 january, wed
wed2001:00+5se468587 0.1 1025301
04:00+4e458576 0.0 1024227
07:00+4e588777 0.0 1024335
10:00+6ese6108789 0.1 1024551
13:00+8se688693 0.4 1023573
16:00+8se7108993 0.2 1022551
19:00+8ese6108790 0.9 1022543
22:00+8se61088100 1.3 1021631
21 january, thu
thu2101:00+9se71086100 2.4 1020654
04:00+10sse688197 0.8 1018622
07:00+10se9128395 1.3 1018826
10:00+10se101282100 0.4 1018991
13:00+11se101380100 0.9 10171129
16:00+11se9128299 0.4 1016954
19:00+10sse9128299 1.2 1016711
22:00+11sse71078100 1.6 1014674
22 january, fri
fri2201:00+12sse71077100 2.7 1013731
04:00+12sse8108099 0.8 1010693
07:00+12s9148299 1.9 10091066
10:00+12s121780100 1.7 10081157
13:00+12s111682100 5.3 10061192
16:00+13s81484100 4.2 1005959
19:00+12s81388100 10.6 1005830
22:00+12s61087100 6.4 1005429
23 january, sat
sat2301:00+12s81385100 11.4 1005899
04:00+11s111594100 5.3 1002953
07:00+11sse111686100 12.5 10001129
10:00+11s101490100 4.8 998965
13:00+11ssw6881100 8.5 997886
16:00+8wnw91288100 3.7 997783
19:00+8wnw51085100 5.6 1000868
22:00+9w91380100 2.3 10011263